Theta_e
326 330 332 334 334 333 333 332 333 336 337 336 338 342 341 338 339 338 334 331 333 337 335 333 334 331 332 333 330 330 331 330 330 329 330 331 331 331 332 331 331 331 330 330 329 328 328 326 325 326 326 327 326 325 325 324 323 321 320 320 320 320 319 317 316 315 316 315 311 311 315 315 315 316 315 316 316 317 317 317 317 316 315 314 315 314
325 329 331 331 330 329 330 330 333 337 336 336 340 342 338 337 340 337 333 331 332 338 334 331 333 332 332 333 330 329 329 330 330 330 330 331 331 331 331 331 331 331 328 328 328 326 326 324 323 324 324 325 326 325 324 323 322 321 321 320 319 318 318 318 317 316 316 316 313 311 314 315 315 315 315 316 316 317 317 317 317 316 315 314 314 315
327 329 327 325 325 326 329 330 333 336 335 336 338 338 336 337 338 335 332 332 334 338 335 331 334 333 331 332 330 327 328 329 330 331 330 331 331 330 331 331 331 330 327 326 326 325 324 323 322 323 323 324 324 323 322 322 322 321 320 320 319 317 317 317 317 316 315 315 313 312 312 314 315 315 315 316 316 316 316 316 316 315 314 314 315 316
327 330 327 324 324 326 330 331 333 334 332 334 336 336 334 335 338 337 334 333 335 337 335 334 335 333 331 331 330 327 327 328 330 331 330 330 331 330 331 331 331 330 327 325 325 324 323 322 321 322 322 323 322 322 322 322 321 319 318 318 318 317 317 316 316 315 314 313 313 313 313 314 314 315 315 315 315 315 315 315 315 314 314 315 316 316
327 329 325 323 325 328 330 331 333 335 333 330 333 337 335 334 338 338 335 335 335 334 334 337 337 334 333 333 332 330 327 328 330 331 331 331 330 330 331 331 331 331 328 326 325 324 323 322 321 322 322 322 321 322 322 321 319 319 318 318 317 317 317 316 316 315 315 314 314 314 315 315 315 315 315 315 315 315 315 315 315 314 314 315 316 316
326 325 323 323 326 328 330 331 331 334 334 330 331 336 334 334 336 335 335 338 340 336 334 337 340 338 336 334 333 332 330 330 331 330 330 330 330 330 331 330 331 331 329 327 325 324 324 322 321 321 321 321 320 320 321 319 318 319 318 317 317 317 316 316 316 316 315 315 315 315 315 315 315 315 315 315 315 315 315 315 314 313 313 314 315 316
326 325 324 324 325 326 328 330 328 329 333 331 331 333 333 335 336 334 336 340 341 339 335 337 343 341 337 334 333 333 332 332 331 330 330 330 330 331 331 331 330 330 329 326 325 324 324 322 320 320 320 320 318 318 319 318 317 317 317 317 316 316 316 316 316 316 315 315 315 315 315 315 315 315 315 315 315 315 315 314 313 313 313 314 315 316
325 324 326 325 327 327 327 329 327 328 332 332 331 332 333 335 334 333 337 340 340 337 334 335 338 340 339 336 332 332 333 333 332 331 330 330 330 331 331 331 331 329 327 325 325 324 323 321 320 320 320 319 319 318 318 317 317 317 317 317 317 317 317 317 317 316 316 316 316 315 315 314 315 315 316 316 316 316 315 314 313 313 313 314 315 316
325 325 325 328 331 330 330 331 327 328 334 332 329 330 331 333 334 335 340 341 338 336 336 334 332 337 342 339 332 331 333 333 333 331 330 330 330 331 331 331 330 328 326 325 325 324 322 321 321 321 320 319 319 318 317 317 317 317 317 317 317 317 317 317 317 317 317 316 316 315 315 314 315 316 316 316 316 316 315 314 314 314 313 314 314 316
325 324 324 329 334 333 334 331 325 330 335 330 327 330 331 332 333 337 342 341 337 337 339 337 331 335 342 340 333 333 333 332 332 331 330 329 330 331 331 330 329 327 325 325 325 324 323 322 322 321 320 320 319 318 317 317 317 317 318 317 318 318 318 317 316 317 316 315 315 315 315 314 314 315 316 316 316 316 316 315 314 314 313 314 314 316
324 324 325 328 330 330 331 327 325 331 331 328 330 332 332 334 337 339 342 340 336 337 340 336 332 332 339 340 333 332 334 331 331 331 330 330 330 331 331 330 328 325 325 324 324 324 323 323 322 321 320 318 318 318 317 317 318 318 318 318 318 318 317 316 315 315 315 314 315 315 314 315 315 316 316 316 317 317 316 316 315 314 313 313 314 316
326 327 327 325 326 326 327 327 327 329 328 330 333 334 334 335 336 338 338 338 338 338 339 336 332 333 337 340 334 331 331 330 330 331 330 330 330 330 331 330 328 325 325 325 324 324 323 322 321 320 318 316 316 318 318 318 318 318 318 318 318 317 316 316 315 315 315 315 315 315 315 316 316 316 316 317 317 317 317 316 315 313 313 314 314 316
334 333 326 324 325 323 325 328 326 327 329 330 332 335 336 333 332 335 335 337 339 338 338 335 332 334 336 336 333 330 330 330 329 330 330 330 330 330 331 331 329 327 326 326 325 324 323 322 321 320 317 316 317 319 318 318 318 318 318 319 318 317 316 315 315 315 316 316 316 316 316 316 316 317 317 317 317 317 317 316 315 313 314 314 315 316
333 334 331 326 327 325 328 331 328 329 329 329 333 336 338 334 332 334 332 334 335 334 337 336 334 336 335 334 335 331 328 329 329 329 330 330 330 331 331 331 330 328 326 326 325 325 324 323 322 320 318 316 317 318 318 318 319 318 318 319 318 317 317 316 316 316 316 316 316 316 317 317 317 317 317 317 317 317 317 316 315 315 315 315 315 317
327 333 339 331 328 328 328 331 333 335 333 333 337 337 337 337 337 336 334 337 338 335 334 333 334 337 335 338 341 330 326 328 328 329 329 330 331 331 331 331 330 328 326 326 326 325 325 324 323 321 319 317 317 318 318 318 319 319 318 318 318 317 318 317 316 316 317 317 317 317 317 317 317 316 317 317 317 317 317 317 316 316 315 315 316 318
324 331 340 330 327 328 326 328 330 333 334 333 334 334 333 335 340 339 335 339 341 336 333 332 335 340 336 337 337 327 326 328 326 328 329 329 331 330 331 331 329 328 326 326 326 325 325 325 324 322 320 318 318 318 318 318 319 319 319 319 318 318 318 317 317 317 317 317 317 317 318 318 318 317 317 317 317 317 317 317 317 315 315 315 316 318
327 332 338 327 324 326 324 325 327 329 334 333 330 332 333 332 338 337 330 335 338 331 332 332 333 339 335 332 334 328 328 329 325 328 328 328 330 330 330 331 329 328 326 326 326 325 326 325 324 323 321 318 318 318 318 318 318 319 320 320 320 319 318 318 318 318 317 317 317 318 318 318 318 318 317 317 318 318 318 317 317 316 315 315 317 319
330 331 335 328 325 326 324 325 326 327 331 335 333 334 332 327 334 337 330 334 334 329 335 336 332 335 334 333 336 332 330 331 328 328 327 327 329 329 330 330 329 328 327 326 327 326 326 326 324 323 322 320 318 317 318 318 318 319 320 321 320 320 320 319 319 319 319 318 318 318 317 318 318 318 317 317 317 318 318 318 317 316 316 317 319 320
330 329 336 333 325 325 324 324 326 325 325 332 335 333 331 328 333 334 328 331 332 327 334 338 333 333 334 336 337 332 332 335 331 328 327 327 328 329 330 330 329 327 327 326 326 326 326 326 326 324 323 321 318 317 318 318 319 319 320 321 321 321 321 320 321 320 320 320 319 319 318 319 319 319 318 318 318 318 318 318 317 316 317 318 320 321
333 330 333 332 326 324 327 329 329 328 326 327 328 329 334 337 336 331 326 331 334 329 331 336 331 331 338 340 336 333 333 334 332 329 328 327 327 329 329 329 329 327 327 327 326 326 326 326 327 326 325 323 319 318 318 318 319 320 320 320 321 321 321 321 321 321 321 321 321 320 319 320 320 320 320 319 319 319 319 318 317 317 319 319 320 321
333 329 331 334 328 323 328 332 330 330 328 328 328 327 329 332 331 330 329 330 334 335 335 333 329 336 346 340 333 334 332 331 332 330 327 326 327 329 329 328 329 328 327 327 326 327 327 327 327 326 326 324 321 319 318 318 319 320 320 320 321 321 322 322 322 322 322 322 322 321 320 320 320 320 320 320 320 320 320 320 320 320 320 320 321 321
331 332 339 338 327 325 333 336 330 327 329 332 333 333 334 332 328 328 330 332 338 339 337 334 331 338 347 336 329 333 330 328 330 328 326 327 327 328 329 328 329 329 328 328 327 327 327 328 328 327 326 324 322 320 318 318 319 320 321 321 321 322 322 322 322 323 323 323 322 321 321 321 321 321 321 320 320 321 321 321 321 321 321 321 322 321
336 339 337 329 326 330 330 327 324 323 328 331 331 336 340 338 335 335 334 335 335 332 334 338 335 339 350 343 330 328 328 327 327 326 326 327 327 328 328 328 329 329 329 329 328 328 328 328 328 327 326 325 323 321 319 318 319 321 321 321 321 322 322 322 322 323 323 323 322 322 321 322 322 322 322 322 322 322 322 322 322 323 323 322 322 321
337 336 326 328 341 343 333 330 331 328 330 330 327 333 335 335 343 346 343 341 334 326 329 332 331 339 352 345 328 323 326 326 326 327 327 326 327 328 327 328 329 328 329 329 328 329 329 328 328 327 326 325 324 323 320 318 319 321 321 321 321 322 322 322 323 323 323 323 322 322 322 322 322 322 322 322 323 323 323 323 323 323 324 323 323 321
334 336 332 334 341 342 339 340 339 336 338 334 330 333 333 335 341 337 336 341 334 327 331 333 332 342 349 336 327 326 327 327 326 326 327 327 327 328 328 328 328 328 329 329 328 329 329 328 328 327 326 326 325 324 322 319 319 320 321 321 321 322 322 322 323 323 323 323 323 322 321 322 322 322 322 323 323 324 324 324 324 324 324 324 324 321
335 342 345 339 333 335 337 337 337 337 336 332 331 332 329 331 335 329 329 338 333 325 330 336 335 340 342 332 329 331 330 330 328 326 326 327 327 328 329 328 329 329 329 329 329 329 329 329 328 328 327 327 326 326 324 321 319 319 321 321 321 322 322 322 323 323 323 323 323 322 321 322 322 323 323 323 323 324 325 325 325 324 325 325 324 321
338 339 346 346 339 338 341 344 345 336 327 327 331 332 329 329 337 336 330 336 338 328 328 339 339 333 333 332 329 331 332 332 332 328 326 327 327 328 329 328 329 329 329 330 329 329 329 329 328 328 328 327 327 326 325 324 321 319 320 321 322 322 322 322 322 323 323 323 323 322 322 322 322 322 323 323 323 324 325 325 325 325 325 325 324 321
341 329 333 342 339 338 340 343 343 331 324 330 333 330 330 330 334 336 332 337 341 330 327 341 341 330 331 334 332 332 334 333 332 328 326 328 327 328 329 329 329 329 329 330 329 329 329 329 329 329 328 328 328 327 326 326 323 320 320 321 322 322 322 323 323 323 323 323 323 322 322 322 322 322 323 323 324 325 325 325 325 325 326 326 325 321
343 327 327 332 333 340 341 336 337 333 326 330 332 330 331 332 332 333 335 341 341 333 336 346 341 332 333 334 333 334 333 331 330 328 327 328 328 328 329 329 329 329 329 330 330 330 329 329 329 329 328 328 328 327 326 326 325 322 321 321 322 322 323 323 323 323 323 324 324 323 322 322 323 323 324 324 324 324 325 325 325 326 326 327 325 321
336 335 335 328 325 337 340 332 335 333 324 325 330 331 331 335 338 336 335 340 338 334 345 351 339 335 338 334 331 331 328 327 328 329 329 328 328 329 329 329 329 329 329 330 330 330 329 330 330 329 329 329 328 328 326 326 326 324 322 322 322 322 323 323 323 323 323 324 324 323 323 323 324 324 324 324 324 324 325 324 325 326 326 327 325 320
327 333 339 332 326 337 343 336 335 331 324 325 327 330 333 333 334 334 332 335 331 327 339 345 334 332 336 331 327 327 326 328 328 328 329 328 328 329 329 329 329 329 329 330 330 330 330 330 329 329 329 329 328 327 326 326 327 325 323 322 322 322 323 323 323 323 323 324 324 324 323 323 324 324 324 324 324 324 324 324 325 325 326 326 324 319
331 332 338 335 328 334 340 335 336 339 335 331 327 328 336 335 332 333 333 333 331 329 333 333 328 331 333 326 324 326 326 327 327 328 329 329 329 329 329 329 330 329 330 330 330 330 330 330 330 329 329 329 328 327 326 327 327 326 324 323 322 323 323 323 323 323 323 324 324 324 324 323 323 324 324 324 324 324 324 324 324 326 326 325 321 318
340 335 337 335 327 332 340 337 340 341 333 332 336 336 337 337 335 335 333 333 337 339 339 334 335 344 341 328 327 330 328 327 327 328 330 330 329 329 329 329 330 329 330 330 330 330 330 330 330 329 329 329 328 327 327 327 327 326 324 323 323 323 323 323 323 323 324 324 324 324 324 323 323 324 324 324 324 324 324 324 325 326 326 322 319 318
340 333 334 335 326 330 346 346 339 331 326 336 352 349 338 336 339 334 328 328 334 338 340 338 338 344 340 331 329 331 329 329 329 328 330 330 329 329 329 329 330 330 330 330 330 330 329 329 330 329 329 328 327 328 327 327 327 326 324 323 323 323 323 323 323 324 324 324 324 324 324 324 324 324 324 324 324 324 324 324 325 326 325 321 319 318
338 332 331 335 330 333 346 345 329 326 335 348 355 347 337 337 342 338 330 330 333 334 334 332 329 330 330 326 325 327 328 329 329 329 331 331 329 330 329 329 329 329 330 330 329 329 329 329 330 329 329 328 327 328 327 327 326 325 324 323 323 323 323 324 324 324 324 324 324 324 324 324 324 324 324 324 324 324 324 324 325 326 325 322 319 318
337 337 331 330 329 329 333 334 329 331 338 341 338 333 329 331 336 336 330 329 332 332 331 330 328 326 323 322 324 327 327 328 328 329 330 330 330 330 330 330 330 329 329 329 328 329 329 329 330 329 329 329 328 328 328 327 326 324 323 323 323 324 324 324 324 324 324 324 324 324 325 325 324 324 324 324 324 324 324 325 326 326 326 323 319 317
334 338 332 324 324 331 333 333 336 336 330 328 331 329 325 327 333 335 329 326 330 330 327 329 332 328 322 322 325 326 326 327 328 328 329 329 330 330 330 330 330 329 329 329 329 329 329 329 330 330 330 329 328 328 328 327 327 325 324 324 324 324 324 324 324 324 324 324 324 324 325 325 324 324 324 324 325 325 325 326 326 327 327 324 319 317
329 331 332 327 325 335 340 333 331 331 329 336 345 338 327 325 328 330 331 332 334 329 324 328 335 330 323 323 323 323 327 329 329 329 329 329 329 330 330 329 329 329 329 329 329 329 329 330 330 330 330 330 330 329 329 329 328 326 325 325 325 325 324 325 325 325 325 325 325 325 325 325 325 325 325 325 325 325 326 327 327 327 327 323 318 316
331 330 336 333 325 329 336 332 329 330 334 343 350 340 327 323 324 328 333 337 335 326 322 327 330 326 324 324 322 324 330 331 328 327 327 328 328 329 329 329 329 329 329 329 329 329 329 330 330 330 330 330 330 330 330 330 329 327 326 326 326 326 326 327 328 327 326 326 326 325 325 325 325 325 325 325 325 325 327 327 328 328 326 321 317 315
336 332 332 330 325 328 334 332 329 329 331 337 344 337 325 322 327 332 333 336 334 325 322 326 326 324 325 325 323 326 331 331 328 326 324 325 325 326 327 329 329 329 329 328 328 329 329 330 330 330 330 330 330 330 330 330 330 329 329 328 329 329 328 329 329 328 328 327 327 326 326 325 325 325 325 325 325 326 327 327 329 328 324 319 316 315
336 334 330 328 328 329 330 328 327 330 330 330 334 331 322 321 331 338 338 337 331 325 323 325 325 325 325 324 324 326 327 326 326 325 323 324 325 325 326 327 327 328 328 327 328 329 329 330 330 330 330 330 330 330 330 331 330 330 330 329 329 329 329 329 329 329 328 328 327 327 327 326 326 326 326 326 326 327 328 328 329 327 322 317 316 314
334 333 330 329 328 330 336 335 329 330 330 328 329 327 324 327 333 336 335 329 324 325 326 325 324 325 324 324 324 324 324 324 324 324 324 325 325 325 325 325 327 328 327 327 328 328 328 328 328 329 330 329 329 329 330 330 330 329 328 328 328 328 327 327 328 328 328 328 327 327 327 327 327 326 326 326 327 327 328 328 328 325 320 317 315 314
330 329 331 332 327 328 336 335 327 329 333 331 331 331 330 333 335 332 328 325 323 325 325 325 325 325 324 325 325 324 325 325 324 324 325 325 324 324 325 326 326 327 327 328 328 327 326 326 326 327 327 327 328 329 328 328 328 327 327 327 327 326 326 326 327 327 327 327 327 327 327 327 327 326 326 327 327 328 328 328 326 323 319 316 315 314
328 328 333 336 329 326 331 330 327 332 334 330 333 336 334 333 333 329 327 325 323 323 324 325 325 325 324 325 324 324 324 324 323 323 324 325 325 325 325 326 326 327 328 327 327 326 326 326 325 326 326 326 327 328 327 326 326 326 327 327 326 326 326 326 326 326 327 327 327 326 327 326 326 326 327 327 328 328 328 327 325 322 318 316 315 313
329 327 330 334 332 328 330 332 330 329 328 328 331 333 332 331 331 328 326 324 323 324 324 324 324 324 324 325 324 324 324 324 324 324 324 325 326 326 326 326 326 327 327 327 326 326 326 326 326 325 325 326 327 327 326 326 326 326 326 326 326 326 326 326 327 327 327 327 327 326 326 326 326 327 327 328 328 328 327 326 324 320 317 316 314 313
329 326 328 336 337 331 328 328 327 326 326 327 328 329 329 331 330 327 326 325 325 326 325 324 325 324 323 324 325 325 325 324 324 323 324 325 326 325 324 325 326 327 327 326 326 326 326 327 326 325 326 326 326 327 327 326 325 325 325 326 326 327 326 326 326 326 327 328 328 327 327 327 327 327 328 328 328 327 326 325 322 319 317 315 314 314
328 326 331 336 334 332 333 330 325 324 325 325 326 328 330 330 329 327 328 328 328 328 327 327 327 325 324 324 325 324 324 324 323 323 323 324 326 325 323 322 325 329 330 328 328 327 326 326 326 326 326 326 327 327 326 326 326 326 327 327 326 324 323 322 323 326 327 328 328 328 327 328 328 328 328 327 326 326 325 323 321 318 316 315 314 313
328 328 335 335 329 330 334 330 323 323 324 324 325 326 327 328 329 328 329 330 329 329 329 329 328 328 327 327 327 326 325 324 323 323 324 324 326 326 323 320 321 324 327 329 330 330 329 328 327 326 326 326 327 328 327 327 327 326 325 324 321 319 318 319 321 324 326 326 327 327 327 328 327 327 326 325 324 323 322 320 318 316 315 314 313 313
327 332 336 333 330 331 330 327 325 326 326 324 324 324 325 327 329 329 329 330 329 329 330 329 330 330 329 329 329 328 326 325 324 324 325 325 326 325 323 320 319 320 323 328 331 331 331 330 329 328 328 328 328 327 326 325 323 321 321 319 318 317 316 318 321 323 325 326 327 327 326 326 326 325 324 323 321 320 318 316 315 314 314 314 314 313
329 335 332 328 330 332 330 328 327 329 328 324 322 323 324 325 327 328 329 329 328 328 329 329 329 330 330 330 331 329 327 327 326 325 325 326 326 325 323 321 320 321 324 329 331 330 330 330 331 331 330 329 327 324 322 321 319 319 319 318 317 316 315 317 320 323 324 325 325 325 324 324 323 322 320 318 317 315 315 314 314 313 313 313 313 313
327 331 330 330 332 332 328 325 324 325 324 322 321 323 324 324 325 326 326 327 327 327 328 328 328 329 329 329 330 330 330 329 328 327 327 327 327 327 327 327 326 325 327 330 330 329 329 330 330 330 330 329 325 321 319 319 318 318 319 318 318 316 316 317 319 321 322 322 322 322 321 320 318 317 315 314 313 313 313 313 313 313 313 312 312 312
Wind_Speed
5 3 1 4 7 9 9 8 8 4 4 6 5 4 5 4 2 3 5 7 8 6 2 5 7 6 6 5 8 11 10 10 12 14 15 14 13 16 17 17 18 17 17 17 14 13 13 12 13 13 12 14 14 13 12 11 10 12 13 11 10 10 12 14 13 12 11 10 15 19 19 18 18 17 17 17 17 16 16 15 14 14 13 14 13 13
4 4 7 9 10 11 10 8 6 5 5 5 5 5 4 3 3 2 6 7 6 5 2 6 8 5 6 6 8 12 9 9 13 15 16 16 15 17 18 18 18 18 18 19 16 15 13 11 13 15 14 15 15 14 12 10 10 11 11 10 10 9 11 13 14 12 10 9 12 15 16 18 19 18 18 18 17 15 15 14 12 12 13 13 14 14
1 4 11 12 8 7 7 7 7 6 5 5 4 5 3 4 1 2 4 5 3 4 4 5 6 5 6 6 8 12 11 11 16 18 18 19 18 19 20 20 20 20 21 21 18 17 15 13 15 16 14 14 14 13 12 10 10 10 10 11 11 9 10 13 15 12 11 11 11 12 15 17 18 18 19 18 17 16 14 13 10 10 13 14 15 15
2 6 13 11 6 8 7 7 8 6 3 3 4 6 3 4 3 1 2 3 4 3 5 6 4 3 4 4 5 12 15 12 14 18 19 19 19 21 23 22 22 23 24 24 21 19 17 16 18 18 16 15 13 13 13 10 10 10 10 11 11 10 11 14 15 12 11 13 14 15 16 17 17 18 18 16 15 13 11 11 10 10 12 14 16 16
6 10 10 4 6 11 10 8 8 6 3 3 4 5 4 4 4 3 3 3 4 4 4 6 4 1 4 5 4 8 13 11 12 16 18 19 20 22 24 23 23 25 26 26 24 22 19 18 19 18 18 16 13 13 13 11 11 10 10 10 11 10 9 11 14 10 9 14 16 17 18 18 18 17 16 15 13 11 9 8 9 10 10 13 16 17
9 14 8 5 8 11 11 8 8 7 4 3 3 5 7 7 6 6 6 4 4 3 1 5 4 3 3 6 6 5 7 8 10 13 17 20 21 22 24 24 25 25 26 27 26 23 21 19 18 19 19 17 13 13 13 11 11 11 10 9 9 10 10 12 14 10 10 15 16 17 18 18 17 17 16 14 13 11 9 8 9 9 9 12 14 16
6 10 3 6 8 11 11 8 9 9 6 3 5 6 10 10 10 9 7 4 3 2 3 4 4 2 4 5 8 6 6 8 9 10 15 20 22 23 25 25 25 24 26 29 27 24 21 19 20 21 20 17 15 14 13 12 11 11 10 8 10 12 14 16 15 11 13 15 15 16 17 15 15 17 16 13 11 10 8 8 8 7 8 10 13 15
2 1 4 6 4 7 8 7 7 8 6 3 6 9 11 11 11 10 6 4 3 2 0 1 3 1 3 6 7 8 8 8 9 9 12 18 23 25 26 26 24 24 28 31 29 25 22 20 20 20 20 17 15 15 15 13 12 11 10 12 16 17 17 18 16 13 14 14 14 16 16 14 17 17 15 12 10 9 8 8 7 6 8 10 12 14
0 1 4 5 4 4 4 6 6 8 5 3 7 8 9 10 9 7 5 3 2 3 1 4 2 2 3 5 5 8 8 9 11 11 11 16 21 25 27 26 24 24 29 31 30 26 23 21 20 19 19 17 15 15 15 14 11 11 13 17 18 16 16 16 16 15 14 13 14 14 14 15 17 16 13 12 9 8 7 7 6 5 7 10 11 13
2 5 10 7 4 3 5 5 6 7 4 5 8 6 6 6 5 5 4 2 3 3 3 5 4 2 4 3 4 7 7 10 11 10 12 18 22 25 27 26 24 27 31 30 28 27 24 21 20 19 18 16 16 16 15 13 11 13 16 17 16 15 14 14 14 15 13 13 14 14 14 15 16 15 13 11 8 7 6 5 5 5 7 8 10 11
5 4 11 7 4 7 3 1 7 9 9 11 8 7 7 5 4 4 3 3 4 2 5 6 8 5 2 4 5 7 8 11 11 8 11 18 22 26 28 27 27 31 32 30 28 26 23 21 21 20 17 17 18 17 17 14 13 16 18 17 15 14 13 12 13 16 15 14 15 16 16 17 17 16 13 11 8 7 5 4 4 3 5 6 8 10
5 2 2 2 8 10 3 4 8 11 13 11 6 6 6 3 3 4 4 3 2 3 5 4 8 6 2 5 6 9 9 9 12 10 11 16 22 27 30 29 31 32 32 31 29 26 24 24 23 20 18 20 21 20 19 16 14 17 18 17 16 14 13 14 16 18 17 16 15 15 15 15 15 14 12 10 8 6 3 3 2 2 4 6 8 10
3 3 3 2 6 11 7 6 6 6 7 7 6 6 5 2 2 1 2 1 1 4 3 3 6 5 5 7 8 12 10 9 15 17 18 21 25 29 31 31 32 32 32 32 31 29 27 27 25 21 21 21 21 22 21 17 16 17 17 17 16 14 15 17 18 19 17 15 14 13 13 12 12 11 9 7 6 5 2 2 2 2 5 7 9 10
3 5 4 3 1 5 8 6 4 2 3 6 6 5 4 3 2 1 2 1 2 4 2 2 5 2 4 6 8 14 15 16 21 25 28 30 31 32 33 34 34 32 32 33 33 32 30 28 25 23 23 21 21 22 20 17 18 17 17 17 15 14 16 17 18 17 15 14 13 11 10 9 8 8 7 6 5 5 3 3 4 5 6 8 9 10
1 4 3 1 2 2 4 6 7 5 3 4 4 5 4 4 4 3 3 2 3 2 1 0 3 2 2 5 7 12 18 21 25 27 30 32 33 34 33 33 33 32 32 34 35 34 32 29 26 24 23 21 23 24 20 18 19 17 16 17 15 16 17 16 17 17 15 14 12 10 8 7 6 6 6 7 7 6 5 5 7 8 8 8 10 11
3 3 6 4 4 4 3 3 7 7 2 2 2 5 2 4 5 2 2 4 3 1 1 1 3 3 4 4 3 4 12 16 21 24 25 27 29 30 30 31 32 32 33 36 36 35 32 29 26 25 24 22 24 25 21 19 19 18 17 16 15 16 16 16 16 16 15 14 13 11 9 8 7 8 8 7 7 7 7 8 9 9 10 10 11 11
2 4 6 3 3 4 7 8 7 7 3 1 1 2 4 4 7 4 1 0 3 2 2 2 3 4 3 4 4 3 7 9 13 18 21 24 27 29 29 32 32 33 35 37 38 37 33 30 27 26 24 23 25 26 23 20 19 18 18 17 16 15 16 16 15 14 14 14 14 13 12 10 10 11 10 9 8 9 9 10 11 12 12 11 11 11
3 2 6 2 3 7 10 12 6 6 8 5 1 4 2 2 4 4 2 3 4 1 3 1 3 4 1 2 3 2 7 7 8 13 18 22 27 29 30 33 34 35 37 38 38 37 34 31 29 27 25 23 24 25 23 21 19 18 17 17 16 15 16 16 15 14 14 13 14 14 14 13 11 11 11 11 11 11 12 12 13 13 12 10 10 11
4 1 7 4 4 5 4 8 1 0 5 4 4 4 3 2 1 1 2 0 1 1 3 3 3 3 3 3 3 5 9 8 7 10 13 17 23 28 30 33 33 34 36 37 37 37 35 32 29 27 25 24 24 24 23 22 20 19 17 16 16 16 15 15 14 14 15 14 14 15 15 13 12 12 12 12 11 12 13 13 13 12 10 10 11 12
3 3 4 5 2 2 3 4 2 3 3 2 1 2 1 3 3 2 2 2 3 2 2 2 3 2 5 5 6 9 10 8 8 9 11 16 24 29 31 32 33 34 37 38 38 38 36 33 30 27 25 25 25 25 24 23 22 21 18 17 17 16 15 14 14 14 15 14 14 15 15 14 13 13 13 12 11 11 11 12 12 11 10 11 13 13
2 3 2 5 4 0 0 1 6 7 3 1 2 1 2 0 1 1 0 1 3 3 2 1 1 4 5 4 8 11 10 9 10 10 10 18 26 30 33 35 35 36 39 39 40 39 37 33 30 27 25 25 25 25 24 24 23 22 19 18 18 17 16 15 14 15 15 14 14 14 15 15 15 15 14 13 12 11 10 11 11 11 12 13 14 14
2 2 3 2 3 1 4 5 6 9 7 5 4 4 3 2 2 2 1 3 1 4 4 3 2 6 5 3 7 10 8 8 11 12 13 20 27 29 33 37 38 39 40 40 40 39 37 34 31 28 26 26 26 26 25 24 24 24 22 19 18 18 17 16 15 15 15 14 14 14 14 13 12 13 13 13 13 12 11 12 12 13 15 15 16 15
5 3 2 1 3 4 6 6 3 6 6 5 3 3 3 3 4 5 3 4 1 2 1 3 2 5 6 3 5 8 10 11 16 18 17 22 28 30 33 37 39 40 41 41 41 39 37 34 31 29 28 28 27 26 26 25 25 25 23 21 19 19 18 16 15 15 14 14 15 13 13 11 10 10 11 12 13 14 13 13 15 16 16 17 17 15
3 3 1 2 4 3 5 6 3 1 3 4 1 2 4 3 3 5 5 3 2 1 1 3 0 5 6 4 2 9 13 14 17 20 21 23 27 30 33 35 37 40 40 40 40 39 37 34 32 30 28 28 28 26 26 27 26 25 24 22 21 20 19 17 17 16 15 14 14 13 13 12 11 11 12 14 15 15 15 15 16 17 16 17 17 14
1 1 2 2 4 5 6 6 6 5 3 2 2 2 3 4 5 4 2 3 2 3 4 5 2 6 6 5 4 8 10 10 12 18 22 23 27 30 32 34 36 38 38 38 39 38 36 35 33 31 29 28 28 27 26 27 27 27 25 24 23 21 19 18 18 18 17 15 14 14 15 14 13 14 15 16 16 16 17 17 17 17 16 17 17 15
3 3 3 4 2 0 1 2 3 3 1 1 2 2 2 4 6 4 1 4 2 3 4 5 4 5 6 3 5 8 8 8 9 13 17 21 28 32 32 34 36 36 38 39 39 39 37 36 35 32 30 29 28 27 26 27 28 28 26 25 24 22 20 18 19 20 20 18 16 16 16 15 15 16 18 18 18 17 18 18 19 18 17 17 17 15
3 1 3 6 6 5 5 6 5 3 1 3 4 3 2 4 5 5 4 2 3 3 2 4 6 4 5 2 4 6 7 8 7 11 15 18 25 31 32 34 36 37 39 39 39 39 37 36 35 33 31 30 29 27 26 26 27 27 27 26 25 24 22 19 19 21 21 20 18 17 17 17 16 17 18 18 18 18 19 19 19 19 17 17 17 16
4 2 1 5 6 7 7 7 5 3 3 5 5 3 1 2 4 6 4 4 4 6 2 7 4 4 5 4 5 6 7 7 7 14 19 20 24 29 31 32 34 36 37 39 39 39 38 36 35 34 33 31 30 29 27 27 27 26 26 26 25 24 23 22 21 21 22 21 20 18 18 17 17 17 17 18 18 19 20 19 19 19 18 18 18 17
5 0 3 3 3 6 6 6 6 5 3 3 4 3 2 4 4 5 4 5 6 6 6 7 5 5 5 6 8 8 10 11 13 20 24 22 24 28 30 31 32 33 35 38 39 39 38 37 36 36 35 33 31 30 29 28 28 27 26 27 26 24 23 24 23 22 23 23 21 19 17 17 18 19 19 20 20 20 20 20 19 19 18 18 18 16
5 1 4 2 2 6 5 3 4 6 2 2 1 5 6 7 7 6 4 5 6 4 5 5 6 5 5 7 10 13 17 18 18 22 24 23 25 28 30 31 32 34 36 39 40 40 38 37 36 36 36 34 33 31 30 30 30 30 28 28 28 27 25 24 24 23 24 24 22 19 18 18 19 21 21 22 21 21 21 21 20 19 19 19 18 16
3 1 3 3 4 6 6 3 3 4 3 2 2 4 5 7 5 3 3 4 4 1 1 6 5 3 5 6 10 14 18 17 16 19 22 23 25 28 29 30 32 35 37 39 40 40 38 37 36 36 36 35 34 32 31 31 31 31 30 29 29 28 26 25 25 24 24 24 22 20 19 19 20 21 23 23 23 23 23 22 21 19 18 19 18 17
2 0 2 5 4 5 6 1 4 4 6 4 3 4 4 5 4 2 3 3 4 3 4 6 5 4 6 3 7 11 15 15 15 18 21 23 25 28 29 30 31 34 36 38 39 39 39 38 37 36 35 34 34 33 32 31 31 32 32 31 29 28 26 26 25 24 24 24 23 22 21 20 21 22 23 24 25 25 25 24 22 20 19 19 18 16
2 2 0 3 2 5 6 2 4 6 6 4 4 6 5 3 3 2 1 2 5 6 6 5 5 6 5 4 6 8 10 12 15 20 23 25 26 28 30 31 31 32 35 37 38 39 39 37 35 33 32 32 33 34 32 31 32 33 32 31 30 29 28 27 25 25 25 24 24 24 23 22 22 23 24 26 26 26 26 25 23 21 18 17 17 16
2 4 2 2 2 4 7 5 5 4 2 5 6 6 7 5 6 5 1 1 3 4 5 4 4 3 4 6 9 10 11 15 21 25 27 27 28 29 31 31 31 32 33 35 37 37 37 35 34 31 29 29 30 30 30 30 31 32 31 29 29 29 28 27 26 26 26 26 26 26 25 25 25 25 26 27 27 27 27 26 24 21 18 17 17 16
2 4 2 1 3 3 3 5 5 2 6 7 5 4 4 6 9 8 4 3 1 2 5 3 3 2 3 8 14 20 21 24 27 29 29 28 28 30 30 31 31 31 30 31 32 34 34 34 33 31 28 28 28 29 29 29 29 30 30 29 29 29 28 26 26 27 28 28 28 28 28 27 27 27 28 29 29 29 28 27 24 21 19 18 17 16
4 4 2 2 2 1 2 4 3 5 7 5 6 5 1 5 7 8 6 7 4 0 3 3 2 1 3 7 15 22 24 24 22 25 29 28 26 27 28 28 30 30 29 28 29 31 33 34 33 31 29 28 29 29 29 28 27 29 30 29 28 28 28 28 28 29 29 30 30 30 30 29 29 29 30 30 31 30 28 26 24 21 19 18 17 17
6 3 2 1 0 2 2 1 2 2 3 3 3 2 3 4 5 7 5 3 5 4 2 5 4 4 7 11 14 17 18 15 10 14 24 26 24 25 26 25 26 26 26 27 27 28 29 31 33 31 28 29 30 31 30 27 25 27 28 28 27 27 28 29 29 30 30 31 31 30 30 30 31 31 31 32 32 30 28 26 24 21 20 19 18 17
5 4 4 3 0 2 4 1 2 2 2 5 6 7 4 7 11 9 6 2 6 6 2 8 7 5 6 10 14 17 15 9 2 7 19 24 23 25 25 23 24 24 24 25 26 27 28 30 31 29 28 29 30 30 29 28 26 26 28 28 28 28 29 29 29 29 29 30 30 30 31 31 32 33 33 33 31 29 27 25 23 22 20 19 18 17
4 1 4 5 1 2 5 2 2 2 4 7 8 9 5 11 15 9 6 2 7 6 3 10 8 6 7 10 13 14 10 5 2 8 15 18 20 23 25 25 24 24 24 24 23 25 27 28 27 27 28 28 28 28 28 28 27 27 28 28 28 28 29 29 28 28 29 29 29 30 31 32 33 34 33 33 31 29 26 24 23 22 20 19 18 16
6 4 4 4 1 2 4 2 2 3 4 6 6 8 6 12 13 9 4 4 7 3 7 14 13 9 10 13 13 9 6 5 6 7 9 10 10 14 18 23 24 24 23 22 20 21 23 24 25 27 28 27 26 24 26 27 28 27 27 28 28 29 30 30 30 29 28 29 29 30 31 32 32 33 33 33 31 28 25 23 22 22 20 19 18 17
4 3 2 3 2 2 3 3 1 2 3 4 5 5 4 7 8 6 4 7 2 6 12 18 18 15 14 15 13 8 7 8 8 9 10 10 9 8 8 13 19 22 20 19 19 19 19 19 21 23 25 24 22 22 24 26 26 26 26 26 27 29 29 29 29 29 28 29 30 31 31 31 32 32 33 33 30 27 25 23 21 21 20 19 19 18
2 3 3 1 2 3 3 3 0 3 2 4 7 5 2 5 3 3 5 5 8 14 16 17 18 17 17 19 16 13 13 14 14 14 14 12 11 11 10 6 12 19 21 19 19 18 16 16 17 19 21 21 19 20 21 23 24 24 23 24 25 25 25 25 27 28 29 30 31 32 33 33 32 33 33 32 30 28 26 22 20 19 19 19 19 18
1 0 2 2 3 1 2 3 3 4 4 11 10 5 4 3 6 6 2 5 11 15 16 16 16 18 20 20 18 16 14 13 13 14 13 12 11 11 11 7 10 19 22 19 19 18 16 15 16 16 17 17 18 19 19 20 22 22 22 24 24 22 23 24 25 27 29 30 32 33 34 34 34 34 34 31 29 27 24 20 19 20 20 20 20 19
1 2 1 2 2 1 2 1 3 5 7 13 7 2 1 2 3 4 5 9 11 14 16 16 15 17 18 18 16 14 11 8 8 8 8 10 10 9 9 7 7 17 21 19 18 18 16 16 16 14 13 14 17 19 19 19 21 21 21 22 20 20 23 23 23 25 28 29 31 32 33 34 34 34 32 29 26 24 22 20 20 20 21 20 20 20
1 1 2 1 2 1 4 3 2 3 8 13 12 9 7 7 6 8 12 13 12 13 15 16 15 15 16 15 14 12 9 7 6 4 5 6 6 6 6 5 6 13 18 17 16 17 18 18 16 13 12 13 17 20 20 20 21 21 21 20 19 19 20 20 20 21 23 26 29 30 32 34 34 32 29 26 24 23 22 21 21 20 21 21 21 21
0 2 3 1 3 1 2 3 5 8 13 16 17 16 14 13 12 14 17 18 16 15 16 16 14 14 15 14 13 12 11 9 8 8 7 6 6 6 5 4 7 13 16 15 15 18 21 19 16 14 14 15 18 20 21 21 21 20 20 20 19 18 18 18 19 20 21 23 25 27 30 31 30 28 25 23 23 22 21 21 20 20 20 21 21 21
3 5 5 2 3 2 1 4 5 8 14 17 17 17 17 15 14 16 18 18 17 17 16 15 14 14 13 12 11 12 12 10 10 11 10 10 11 8 5 4 7 10 12 11 11 15 18 18 17 16 17 18 18 19 20 21 21 19 18 17 15 15 16 17 18 18 18 19 20 22 24 25 24 23 22 21 21 21 21 20 19 20 21 22 21 22
1 3 3 3 3 2 4 4 1 9 14 17 18 17 17 16 15 16 18 18 17 16 15 14 14 13 13 12 10 11 12 11 12 13 11 12 13 9 5 4 5 7 8 8 7 8 10 13 15 16 18 17 16 15 16 17 16 15 13 12 12 13 14 15 14 14 14 14 16 17 19 19 19 19 19 19 19 19 19 19 19 21 21 21 21 21
7 2 2 3 3 5 2 3 0 6 10 14 16 17 16 15 15 15 16 16 16 16 15 14 14 13 13 12 10 9 11 12 14 15 13 12 12 8 5 5 5 4 6 7 6 5 6 8 10 14 15 14 12 11 11 11 10 10 9 9 11 11 11 11 11 12 12 13 14 16 16 17 17 17 17 17 17 17 18 18 19 20 20 20 20 21
7 3 3 4 0 3 5 8 7 1 3 6 11 14 14 13 14 15 16 16 16 16 16 16 16 15 14 13 10 10 12 13 13 14 15 14 12 9 6 5 5 5 5 5 5 5 6 6 9 11 11 10 9 9 9 9 9 9 8 8 9 9 8 9 10 11 12 14 14 15 15 16 16 16 16 16 17 17 18 18 19 20 21 21 21 21
4 6 8 7 4 6 9 12 10 9 7 5 6 9 12 13 14 14 16 16 16 15 14 15 16 15 15 14 12 11 13 14 13 14 15 14 12 10 8 6 6 6 5 4 4 5 6 8 9 10 10 9 9 9 9 10 9 9 8 8 8 8 8 9 10 11 12 13 13 14 14 15 15 15 16 17 17 18 19 19 20 21 21 21 21 22
Wind_Direction
161 146 170 192 197 200 204 193 185 176 149 150 126 114 149 156 242 212 170 172 150 105 121 151 132 156 169 178 191 183 179 179 179 183 185 187 182 175 174 168 162 163 165 166 170 175 178 176 177 176 169 168 166 164 169 167 162 162 158 151 144 149 159 158 152 145 132 102 107 122 117 109 108 105 111 113 108 104 98 92 83 74 74 79 76 66
146 189 237 219 208 200 199 196 160 116 114 122 118 124 144 173 246 216 154 164 146 99 129 149 132 164 176 179 199 184 181 195 193 192 191 192 189 181 180 175 167 166 167 169 175 181 182 174 173 176 173 171 169 166 167 165 162 165 165 158 149 150 161 167 167 157 142 115 109 122 123 117 112 106 110 113 112 112 106 100 84 66 72 79 72 64
165 239 250 237 209 184 188 179 143 125 123 113 120 129 153 202 225 30 128 138 91 97 158 158 137 169 183 182 194 188 190 202 202 199 192 192 193 189 186 180 174 170 170 174 177 178 176 168 167 171 172 171 170 166 164 164 164 165 168 168 163 158 154 157 161 151 134 126 117 121 124 123 121 115 112 111 111 112 108 103 88 72 78 77 68 61
203 242 248 245 193 161 174 163 131 116 127 134 134 134 176 200 148 86 137 92 43 83 144 142 116 142 170 178 204 199 198 203 207 204 197 197 199 196 190 185 181 177 174 174 175 174 170 165 166 171 172 170 170 169 167 169 171 169 171 173 172 166 154 152 156 145 126 127 123 119 120 125 131 126 119 119 116 113 109 105 98 87 79 70 63 57
229 244 237 215 159 159 157 151 138 130 175 205 169 157 175 176 158 154 137 93 38 39 114 116 73 14 172 180 226 211 203 209 212 205 203 206 203 195 190 190 189 185 181 178 175 174 171 167 168 172 174 171 172 176 172 171 174 172 169 171 176 177 172 164 164 160 143 135 129 127 128 130 133 130 128 129 126 121 117 109 105 100 80 64 58 52
239 259 251 147 152 155 143 158 173 158 165 204 214 186 156 139 132 127 117 96 54 10 231 115 79 298 229 193 214 204 196 216 218 208 207 208 203 193 191 193 193 190 188 185 179 176 173 169 170 173 174 172 174 176 174 174 175 172 171 175 182 186 184 170 163 166 158 146 138 136 137 137 135 133 134 134 130 124 117 110 109 105 82 59 51 47
246 269 286 126 149 146 146 179 188 163 141 181 214 170 140 128 128 136 131 109 105 212 232 111 114 261 276 224 214 189 184 211 218 213 208 204 200 195 192 193 194 192 189 186 182 179 175 172 173 174 174 173 169 169 176 181 179 178 180 178 169 166 164 159 158 168 165 157 153 147 141 140 141 141 139 138 131 122 115 115 112 98 73 53 45 41
269 311 77 98 95 114 152 197 188 154 131 184 201 154 138 135 139 148 131 109 160 173 62 83 130 143 276 240 207 179 187 211 215 217 211 200 196 195 194 194 195 192 186 183 180 179 177 174 176 176 174 172 168 168 176 178 176 182 176 157 152 152 152 154 158 167 166 163 164 158 150 145 146 145 144 143 136 125 122 121 114 90 66 50 40 35
258 167 146 120 74 97 185 221 168 138 117 179 183 152 141 139 138 140 115 100 132 102 31 259 185 138 273 255 183 172 191 214 215 214 209 199 195 194 194 195 197 192 187 185 183 182 180 178 178 177 173 172 171 171 174 174 173 178 165 150 150 154 157 159 161 165 168 171 171 168 163 155 151 148 146 145 136 126 126 120 109 84 60 45 34 29
255 173 152 121 100 155 230 240 150 128 103 143 146 109 90 99 99 100 102 89 69 73 238 227 177 155 281 264 159 167 203 215 212 208 205 201 195 192 193 194 192 187 184 186 187 185 183 181 179 177 174 174 174 173 173 170 164 165 162 155 154 157 159 160 161 163 164 169 175 175 168 159 155 155 154 152 142 129 117 101 98 77 52 38 24 21
295 161 139 119 149 169 221 247 130 131 124 120 111 81 68 56 42 52 56 70 72 320 252 198 172 158 295 267 180 182 211 205 196 194 198 199 194 191 191 190 185 182 182 183 185 184 183 182 179 178 179 176 174 177 176 168 159 161 163 163 162 160 161 162 162 162 154 151 159 161 158 155 154 156 156 152 142 132 110 80 87 73 44 24 9 7
324 340 120 134 164 155 108 60 103 123 123 113 105 101 88 39 14 25 4 30 81 264 266 180 159 152 220 262 208 207 215 187 182 190 190 193 193 190 190 188 184 182 182 182 182 181 179 179 179 181 180 174 172 178 180 173 165 164 165 168 169 164 163 160 157 157 151 145 146 150 152 152 151 151 151 147 134 131 120 59 66 59 8 350 351 353
335 296 311 340 163 150 119 81 85 104 110 107 115 112 99 74 28 15 313 334 209 246 268 133 136 156 234 250 220 215 216 186 186 193 189 189 190 190 190 189 187 185 184 183 183 182 182 182 183 182 177 173 172 177 181 178 172 170 170 172 174 167 161 157 155 156 156 154 151 148 149 151 151 150 153 154 142 143 156 1 9 332 321 327 338 342
340 309 323 15 201 155 128 122 134 158 145 139 141 133 123 119 118 237 249 286 248 250 290 134 154 191 275 264 221 208 207 196 192 194 192 191 190 191 191 190 190 189 186 186 186 186 187 187 187 184 180 177 175 178 183 180 175 176 175 176 177 171 163 159 160 163 164 165 162 156 151 151 154 153 162 178 175 172 206 285 298 291 303 321 331 334
110 306 289 154 240 212 145 154 162 154 146 173 165 134 137 147 156 194 205 195 219 245 322 287 190 186 224 253 231 208 203 193 192 197 195 192 193 191 189 189 190 190 188 188 189 189 191 192 190 188 185 181 179 184 187 181 179 182 178 176 177 172 166 164 166 168 170 173 174 173 171 167 166 168 183 199 199 197 221 261 278 286 298 314 324 331
121 256 252 227 213 183 168 169 143 115 79 252 140 98 144 188 146 135 187 177 164 152 171 208 225 212 209 269 309 197 191 184 189 197 193 189 191 187 184 186 188 188 187 187 188 190 192 193 193 191 188 186 184 187 190 184 185 188 181 178 177 171 167 166 167 170 172 176 181 187 190 189 192 200 208 211 210 215 236 261 278 289 295 304 316 327
98 269 271 274 265 209 180 170 153 141 144 299 78 147 224 179 124 113 231 19 78 111 226 217 253 293 304 320 348 123 167 175 181 189 188 184 183 181 182 184 186 187 187 188 190 193 193 194 194 193 192 191 188 190 192 189 189 189 185 182 180 177 174 172 173 176 176 177 182 187 191 196 204 211 220 229 230 231 245 262 273 280 286 296 309 318
140 278 279 241 263 250 184 159 157 154 136 113 189 214 208 80 76 99 127 6 44 154 273 277 238 279 330 295 307 134 165 182 178 183 184 177 175 179 183 184 186 188 188 190 192 194 194 195 195 195 195 196 194 194 195 194 194 193 191 188 184 186 188 184 183 185 186 187 188 189 191 198 208 213 223 235 238 242 252 262 268 273 280 292 304 312
126 31 286 244 215 252 150 122 73 300 132 137 186 175 111 92 2 60 131 313 86 185 285 307 278 250 195 224 243 187 188 190 179 179 177 171 172 178 183 183 184 186 186 187 190 192 194 195 197 197 196 197 198 199 199 199 200 199 198 196 190 191 195 195 195 196 198 199 201 200 199 206 215 217 225 233 240 252 260 263 266 271 281 294 301 307
130 106 285 281 231 238 53 83 177 240 284 322 94 94 64 133 162 170 161 163 141 159 246 298 329 269 226 218 198 198 201 180 165 174 175 175 176 177 180 180 180 182 184 186 189 192 195 197 199 200 199 199 200 201 202 201 202 204 204 203 197 195 198 201 204 207 207 205 205 209 210 216 223 227 234 239 245 254 259 262 266 272 284 291 294 299
111 108 220 298 328 36 280 207 180 186 225 284 115 219 275 109 137 139 86 143 131 140 181 200 306 270 254 211 185 197 200 177 165 169 175 180 179 178 179 179 180 183 185 188 191 194 196 198 200 201 202 201 200 202 203 202 203 205 207 206 202 201 203 204 207 211 213 209 207 210 214 219 226 232 239 242 239 241 251 263 270 276 283 286 287 293
120 108 170 284 341 171 232 239 191 181 185 168 175 204 188 155 132 89 319 293 104 133 170 156 201 265 266 194 187 196 190 179 171 164 170 181 181 179 179 180 183 185 187 191 193 195 197 198 199 200 200 200 200 202 203 203 202 204 207 207 205 206 206 205 206 210 213 213 213 210 208 212 220 226 231 233 232 238 251 264 271 278 283 283 283 291
143 110 109 248 247 220 252 272 215 183 171 140 168 195 147 132 127 126 195 253 78 102 162 118 149 261 266 230 203 197 186 181 175 166 167 178 181 180 179 182 185 188 191 193 193 195 198 199 199 200 200 200 202 204 205 204 202 201 205 208 208 209 208 206 208 210 212 217 219 212 203 206 213 217 228 237 242 249 256 261 268 276 281 281 282 289
109 78 71 307 294 290 299 315 346 24 92 98 171 198 141 147 144 143 174 175 126 169 120 85 246 262 279 299 181 181 185 180 176 170 165 172 182 181 179 181 185 187 190 192 193 195 198 199 199 200 201 202 203 205 207 208 204 202 204 209 211 211 209 210 215 216 218 221 223 218 210 210 218 225 239 249 254 259 261 261 264 271 278 279 281 286
131 88 101 53 359 344 340 347 350 339 12 101 247 244 161 140 105 114 137 85 98 221 154 126 221 252 281 328 86 142 164 169 179 178 169 171 180 182 181 181 183 184 186 188 190 193 196 198 199 201 203 204 205 206 208 210 209 205 205 210 214 214 214 217 221 223 226 227 225 222 217 216 224 232 241 250 258 263 264 265 265 269 275 278 280 283
148 162 122 106 120 219 297 287 275 277 306 280 263 260 181 145 123 138 146 73 110 224 145 137 210 254 293 342 104 129 141 152 176 183 177 175 180 184 184 181 181 182 184 187 188 191 196 199 200 203 205 206 206 207 208 211 212 208 206 209 214 217 219 221 224 227 230 230 227 224 221 221 227 234 241 250 258 263 266 269 269 269 272 275 279 281
96 131 138 139 161 185 193 222 229 166 143 276 274 287 244 171 138 118 102 117 177 172 173 211 199 214 284 303 132 145 146 145 159 177 180 177 179 185 186 182 182 183 184 187 188 191 195 199 201 204 206 208 208 208 209 210 211 210 208 208 211 217 222 224 225 228 230 231 229 225 225 226 231 237 244 252 259 264 268 272 272 270 269 274 280 281
79 17 222 155 183 213 201 225 245 173 186 231 233 268 299 155 127 104 128 206 162 118 238 256 190 176 250 230 174 167 154 144 158 178 183 177 175 184 186 182 182 183 184 186 188 191 195 199 203 205 206 208 209 211 212 211 212 211 209 209 208 213 221 224 224 227 229 230 229 227 228 231 236 242 247 253 258 262 267 271 272 269 267 273 282 280
106 225 253 179 241 256 222 230 234 194 203 226 198 203 139 134 145 137 177 200 140 134 223 233 178 185 228 200 181 182 172 165 168 177 183 177 171 180 184 181 182 182 184 186 189 194 198 200 204 205 207 209 210 212 214 214 215 213 211 212 210 210 217 221 222 226 228 228 231 232 231 232 237 243 245 251 256 260 266 270 270 269 268 273 280 277
104 237 248 182 329 294 272 266 208 178 177 11 222 198 167 156 161 156 177 180 150 174 217 180 162 199 223 195 188 192 184 170 160 166 173 170 169 178 182 181 182 184 186 189 193 197 200 202 204 205 207 209 211 213 215 217 218 216 214 214 213 213 217 219 222 225 226 229 234 236 233 232 238 243 245 250 256 260 265 267 269 271 270 274 278 272
82 251 253 91 39 306 305 355 118 150 134 110 262 240 168 150 147 135 163 164 134 146 166 130 138 219 244 200 181 190 185 163 147 156 167 171 173 179 180 178 181 185 188 192 196 199 202 203 204 206 207 209 212 214 217 219 221 219 217 217 216 217 217 218 222 226 227 231 235 235 234 233 237 243 246 251 255 259 263 265 268 271 272 274 274 266
80 237 301 59 52 292 291 33 93 71 65 74 279 258 169 143 146 163 195 172 148 147 127 117 134 226 246 194 152 175 178 164 154 158 167 176 179 178 179 178 182 188 191 195 198 200 203 205 205 206 208 209 211 213 217 221 222 221 220 219 219 219 218 219 223 227 229 233 234 234 235 236 238 242 246 250 255 258 261 263 265 268 271 274 270 260
137 126 175 86 73 284 288 346 79 72 51 360 266 211 180 159 150 164 244 185 159 148 135 151 202 226 221 163 139 164 175 171 167 162 168 179 182 182 184 183 185 192 195 198 200 202 204 206 206 207 209 210 211 214 219 223 224 223 221 220 220 219 219 221 224 228 232 234 234 235 237 239 241 242 246 250 253 256 258 260 263 266 271 274 266 256
152 133 173 146 132 263 287 352 47 89 169 256 243 195 181 171 150 137 94 216 188 158 141 175 233 231 185 168 164 175 183 180 177 174 175 182 183 184 190 190 190 193 196 198 202 204 206 207 207 208 210 212 214 217 222 226 227 225 222 220 219 220 221 224 227 231 235 235 234 235 237 240 241 242 245 249 251 254 256 258 261 265 269 271 262 254
145 142 188 122 127 231 306 33 60 196 227 244 274 267 202 160 138 120 62 1 321 110 99 73 348 303 209 190 182 181 181 179 179 180 179 184 187 188 192 197 196 195 197 200 205 207 209 210 209 209 211 213 216 219 222 223 225 224 222 219 218 220 222 226 229 233 236 237 236 236 237 239 240 241 244 247 250 252 253 256 260 262 267 271 264 256
157 152 171 122 133 219 12 75 150 236 257 279 317 312 182 106 97 91 45 349 321 29 104 84 6 322 122 147 173 181 179 175 179 184 184 188 195 194 195 199 199 199 201 203 207 209 211 212 212 212 212 213 216 219 221 221 220 219 220 220 219 221 225 228 232 235 236 237 237 237 238 239 241 242 244 246 248 249 251 255 260 262 267 271 263 254
151 131 130 109 169 162 132 178 247 296 301 303 315 268 182 141 140 126 87 331 292 281 183 124 108 100 94 108 142 160 162 158 169 194 192 193 199 200 201 203 202 202 205 206 209 212 213 214 215 215 215 214 214 219 221 221 220 217 218 220 221 224 228 232 236 238 238 239 239 238 239 241 242 243 244 245 246 248 251 258 261 263 269 270 260 253
152 167 167 150 201 109 101 48 342 28 267 251 252 260 234 155 153 136 93 333 291 299 186 133 123 125 105 106 130 139 135 127 131 215 201 198 202 204 205 207 207 208 211 210 212 215 215 214 216 217 217 215 215 219 221 222 222 217 216 218 222 225 228 232 237 240 239 238 239 239 240 241 243 245 244 245 246 249 255 261 263 266 271 267 256 253
72 99 124 114 145 140 108 117 185 187 240 239 239 263 244 156 148 117 63 325 286 306 121 128 131 143 129 127 138 133 113 103 198 212 200 200 208 210 210 210 209 210 213 213 214 214 213 214 216 218 218 216 217 219 222 223 221 217 217 220 224 227 229 232 237 239 239 239 239 239 239 240 243 245 245 246 248 252 259 264 265 267 269 261 251 250
31 31 73 90 174 187 124 137 207 210 241 245 250 264 225 159 131 87 59 258 274 290 128 127 128 137 136 135 139 130 116 147 185 189 171 168 184 201 209 211 210 208 209 210 211 211 211 212 215 216 216 216 217 219 221 222 220 220 222 224 226 229 232 235 239 240 241 242 241 241 240 241 244 246 247 248 249 253 260 262 263 265 262 252 246 248
10 18 66 114 167 199 149 140 232 255 244 260 284 275 201 138 92 82 186 227 220 122 130 126 122 124 125 123 122 121 129 138 136 127 119 115 114 127 164 199 208 206 201 199 202 206 206 206 207 211 214 215 216 217 217 218 219 222 226 228 229 231 234 239 243 243 244 244 244 243 243 245 247 248 248 248 249 253 256 257 260 264 257 246 245 248
4 352 359 96 160 195 160 128 162 261 266 322 316 314 71 107 135 190 204 190 133 124 129 128 125 126 122 116 113 115 116 112 109 107 104 100 94 94 100 137 197 200 196 195 198 197 197 198 201 208 213 213 215 215 214 216 220 223 228 231 232 234 237 240 243 244 245 245 245 244 245 246 247 248 247 247 248 250 251 252 258 261 251 242 244 249
146 151 323 274 223 203 73 72 121 195 294 336 330 320 42 96 201 226 217 149 139 127 127 134 135 130 125 119 116 117 116 109 105 103 100 96 87 83 87 108 179 194 193 192 192 189 188 192 195 203 211 213 215 214 212 216 221 225 231 236 237 239 239 240 241 242 243 244 244 244 244 244 245 245 244 245 247 249 251 256 262 258 246 241 244 250
65 120 171 262 263 109 118 196 193 215 301 342 6 131 67 359 233 212 162 144 132 121 126 136 139 137 134 131 127 128 128 118 109 106 108 105 93 79 78 89 164 193 192 187 187 190 193 194 193 196 207 213 213 212 212 216 221 225 230 234 236 238 239 241 242 241 240 240 241 242 242 242 242 242 242 244 248 253 257 261 263 255 244 242 247 252
296 244 173 223 286 175 168 205 273 322 350 18 49 67 53 54 92 139 146 133 115 116 127 131 136 142 142 139 141 146 145 134 123 121 128 126 112 94 81 86 149 186 190 190 195 201 201 200 199 199 203 209 211 212 215 218 223 228 230 231 233 238 243 249 251 249 246 244 243 244 244 243 241 240 241 244 251 257 261 263 261 252 243 243 249 253
325 60 109 123 317 342 76 35 16 16 20 36 52 57 58 70 87 110 122 118 111 116 123 125 133 144 146 147 153 156 155 153 145 138 143 160 159 135 110 121 161 180 190 199 208 207 203 203 207 208 207 210 212 216 220 223 227 232 237 239 243 249 256 262 265 265 263 258 253 250 247 243 239 238 241 248 254 259 263 264 261 252 245 247 252 256
7 50 85 63 356 11 11 342 4 30 28 33 47 55 62 72 82 95 105 109 113 117 118 117 121 131 142 148 153 158 164 171 165 157 160 174 171 151 118 128 168 183 191 198 205 206 206 212 217 216 215 216 217 221 227 230 231 235 241 248 255 262 267 269 270 269 267 263 257 251 245 242 240 242 246 252 256 259 261 261 255 247 245 248 253 257
317 21 64 54 352 300 217 234 54 60 49 44 45 46 53 68 85 96 100 104 112 116 117 118 117 122 129 130 134 150 162 171 176 176 174 174 173 163 137 140 167 191 203 204 203 205 210 217 222 223 223 221 219 221 226 229 232 237 244 254 266 272 273 273 272 270 266 260 254 249 245 244 246 250 254 257 258 259 259 256 250 248 250 255 259 263
131 109 62 71 347 323 280 233 324 58 55 52 50 46 50 68 86 100 106 108 110 111 112 114 113 114 117 118 123 136 141 154 175 181 174 167 165 159 147 147 151 169 194 198 199 208 218 220 220 219 219 220 222 222 224 227 232 239 246 261 274 280 277 272 268 264 260 257 253 250 250 251 252 254 256 257 257 257 256 255 254 255 259 262 265 267
123 118 93 95 29 276 260 263 268 268 58 40 46 52 59 71 85 96 102 103 101 102 106 108 107 108 111 111 117 127 126 133 156 171 167 161 155 149 143 137 130 140 167 182 192 211 224 225 221 218 218 224 230 227 226 229 233 238 249 268 284 288 278 265 261 259 257 255 254 252 251 251 250 251 251 251 252 254 254 256 257 258 261 262 263 265
171 169 163 160 183 201 208 218 204 158 125 85 71 76 77 80 85 87 89 92 95 98 103 104 101 100 100 101 106 117 121 121 134 151 154 151 151 151 146 135 129 138 160 183 203 220 222 221 224 226 230 237 235 226 226 232 237 244 255 271 287 291 279 263 257 255 255 254 253 251 250 248 246 247 248 250 252 254 255 257 258 260 262 263 264 264